EW9686 Weather Reports


time (UTC)temp
C
wind
direction
speed
KPH
gust
KPH
rain 1hr
cm
rain 24hr
cm
rain mn
cm
humidity
%
barometer
mb
20260506221519 20 225 9.7 20.9 0.00 0.00 0.00 76 1003.1
20260506220519 20 225 6.4 16.1 0.00 0.00 0.00 77 1003.1
20260506215540 20 225 9.7 22.5 0.00 0.00 0.00 76 1003.0
20260506214519 20 225 9.7 17.7 0.00 0.00 0.00 77 1003.0
20260506213519 20 225 9.7 29.0 0.00 0.00 0.00 77 1003.0
20260506212519 20 248 8.0 19.3 0.00 0.00 0.00 77 1002.9
20260506211519 20 225 9.7 22.5 0.00 0.00 0.00 77 1002.6
20260506210519 20 225 8.0 19.3 0.00 0.00 0.00 77 1002.5
20260506205519 20 225 8.0 17.7 0.00 0.00 0.00 78 1002.4
20260506204519 19 225 9.7 16.1 0.00 0.00 0.00 79 1002.5
20260506203519 19 225 9.7 19.3 0.00 0.00 0.00 79 1002.4
20260506202540 18 225 8.0 19.3 0.00 0.00 0.00 80 1002.5
20260506201519 18 225 8.0 20.9 0.00 0.00 0.00 81 1002.6
20260506200519 18 225 8.0 24.1 0.00 0.00 0.00 81 1002.7
20260506195519 18 225 8.0 17.7 0.00 0.00 0.00 83 1002.8
20260506194519 18 225 6.4 14.5 0.00 0.00 0.00 85 1002.9
20260506193520 17 225 4.8 14.5 0.00 0.00 0.00 86 1003.0
20260506192519 17 225 8.0 16.1 0.00 0.00 0.00 86 1003.1
20260506191519 17 225 11.3 22.5 0.00 0.00 0.00 86 1003.2
20260506190520 18 225 16.1 35.4 0.00 0.00 0.00 81 1003.3
20260506185519 19 225 9.7 16.1 0.00 0.00 0.00 75 1003.1
20260506184519 19 225 11.3 24.1 0.00 0.00 0.00 75 1003.3
20260506183519 19 225 11.3 20.9 0.00 0.00 0.00 75 1003.1
20260506182600 19 225 16.1 35.4 0.00 0.00 0.00 75 1003.2
20260506181519 20 225 11.3 20.9 0.00 0.00 0.00 73 1003.5
20260506180519 20 225 12.9 25.7 0.00 0.00 0.00 70 1003.4
20260506175519 21 225 14.5 32.2 0.00 0.00 0.00 68 1003.6
20260506174519 21 225 14.5 29.0 0.00 0.00 0.00 68 1003.6
20260506173519 21 225 11.3 25.7 0.00 0.00 0.00 68 1003.6
20260506172519 21 225 12.9 24.1 0.00 0.00 0.00 67 1003.6
20260506171519 21 225 14.5 37.0 0.00 0.00 0.00 69 1003.8
20260506170519 20 225 8.0 19.3 0.00 0.00 0.00 74 1003.8
20260506165519 20 225 8.0 19.3 0.00 0.00 0.00 74 1004.0
20260506164519 20 203 6.4 14.5 0.00 0.00 0.00 73 1004.4
20260506163519 20 225 8.0 22.5 0.00 0.00 0.00 73 1004.8
20260506162519 20 225 11.3 24.1 0.00 0.00 0.00 71 1005.1
20260506161519 20 203 4.8 14.5 0.00 0.00 0.00 72 1005.2
20260506160519 20 225 11.3 24.1 0.00 0.00 0.00 69 1005.2
20260506155519 20 225 11.3 22.5 0.00 0.00 0.00 66 1005.3
20260506154519 21 225 12.9 33.8 0.00 0.00 0.00 62 1005.2
20260506153519 21 225 8.0 19.3 0.00 0.00 0.00 62 1005.3
20260506152519 21 225 11.3 25.7 0.00 0.00 0.00 63 1005.1
20260506151519 21 225 11.3 22.5 0.00 0.00 0.00 63 1005.2
20260506150519 21 225 11.3 32.2 0.00 0.00 0.00 62 1005.3
20260506145520 21 225 12.9 30.6 0.00 0.00 0.00 61 1005.4
20260506144519 21 225 14.5 29.0 0.00 0.00 0.00 61 1005.4
20260506143519 21 225 8.0 16.1 0.00 0.00 0.00 62 1005.3
20260506142539 21 225 12.9 30.6 0.00 0.00 0.00 60 1005.2
20260506141519 21 225 11.3 25.7 0.00 0.00 0.00 62 1005.2
20260506140519 21 225 9.7 19.3 0.00 0.00 0.00 62 1005.1
20260506135519 21 225 12.9 32.2 0.00 0.00 0.00 62 1005.1
20260506134520 21 225 14.5 40.2 0.00 0.00 0.00 61 1005.2
20260506133519 21 225 17.7 32.2 0.00 0.00 0.00 62 1005.3
20260506132519 21 225 11.3 25.7 0.00 0.00 0.00 64 1005.4
20260506131519 21 225 14.5 33.8 0.00 0.00 0.00 65 1005.5
20260506130519 20 225 12.9 29.0 0.00 0.00 0.00 69 1005.6
20260506125519 20 225 14.5 29.0 0.00 0.00 0.00 70 1005.6
20260506124519 19 225 11.3 30.6 0.00 0.00 0.00 73 1005.5
20260506123519 18 225 9.7 24.1 0.00 0.00 0.00 76 1005.6
20260506122519 18 225 9.7 22.5 0.00 0.00 0.00 77 1005.7
20260506121519 17 225 6.4 17.7 0.00 0.00 0.00 78 1005.6
20260506120539 17 203 11.3 20.9 0.00 0.00 0.00 79 1005.7
20260506115519 17 225 11.3 22.5 0.00 0.00 0.00 78 1005.8
20260506114540 17 225 9.7 20.9 0.00 0.00 0.00 79 1006.0
20260506113559 17 225 12.9 25.7 0.00 0.00 0.00 80 1005.9
20260506112520 17 225 11.3 29.0 0.00 0.00 0.00 81 1006.0
20260506111519 16 225 9.7 24.1 0.00 0.00 0.00 82 1006.1
20260506110519 16 225 8.0 17.7 0.00 0.00 0.00 82 1006.0
20260506105519 16 225 9.7 20.9 0.00 0.00 0.00 83 1006.0
20260506104519 16 203 9.7 20.9 0.00 0.00 0.00 84 1005.9
20260506103540 16 225 8.0 16.1 0.00 0.00 0.00 85 1005.9
20260506102520 16 225 8.0 17.7 0.00 0.00 0.00 86 1006.0
20260506101519 16 225 8.0 19.3 0.00 0.00 0.00 85 1005.8
20260506100519 16 225 6.4 22.5 0.00 0.00 0.00 85 1005.7
20260506095519 16 203 8.0 19.3 0.00 0.00 0.00 85 1005.7
20260506094539 16 225 8.0 17.7 0.00 0.00 0.00 85 1005.7
20260506093519 16 225 6.4 11.3 0.00 0.00 0.00 85 1005.7
20260506092519 16 203 8.0 14.5 0.00 0.00 0.00 85 1005.8
20260506091519 16 225 6.4 14.5 0.00 0.00 0.00 84 1005.7
20260506090519 16 225 8.0 17.7 0.00 0.00 0.00 84 1005.7
20260506085519 16 225 8.0 20.9 0.00 0.00 0.00 84 1005.9
20260506084539 16 225 8.0 22.5 0.00 0.00 0.00 84 1006.0
20260506083519 16 225 8.0 17.7 0.00 0.00 0.00 83 1005.9
20260506082519 16 225 6.4 14.5 0.00 0.00 0.00 83 1006.0
20260506081519 16 225 6.4 14.5 0.00 0.00 0.00 83 1006.0
20260506080519 17 225 9.7 17.7 0.00 0.00 0.00 83 1006.1
20260506073519 17 225 4.8 14.5 0.00 0.00 0.00 82 1006.0
20260506072521 17 225 8.0 19.3 0.00 0.00 0.00 82 1006.1
20260506071519 17 225 8.0 22.5 0.00 0.00 0.00 82 1006.2
20260506070519 17 225 6.4 16.1 0.00 0.00 0.00 82 1006.4
20260506061540 17 203 4.8 12.9 0.00 0.00 0.00 80 1006.3
20260506060519 17 225 4.8 14.5 0.00 0.00 0.00 79 1006.3
20260506050519 18 203 6.4 17.7 0.00 0.00 0.00 75 1006.7
20260506044539 18 225 6.4 14.5 0.00 0.00 0.00 74 1006.7
20260506043519 18 225 8.0 17.7 0.00 0.00 0.00 73 1006.8
20260506042600 18 203 6.4 22.5 0.00 0.00 0.00 73 1006.8
20260506041519 18 225 6.4 16.1 0.00 0.00 0.00 73 1006.8
20260506040519 18 225 9.7 16.1 0.00 0.00 0.00 72 1006.7
20260506035519 18 225 11.3 22.5 0.00 0.00 0.00 71 1006.7
20260506034519 18 225 8.0 17.7 0.00 0.00 0.00 71 1006.7
20260506033519 18 203 8.0 24.1 0.00 0.00 0.00 71 1006.7
20260506032519 18 225 9.7 22.5 0.00 0.00 0.00 70 1006.7
20260506031519 18 225 4.8 12.9 0.00 0.00 0.00 70 1006.6
20260506030539 19 225 9.7 17.7 0.00 0.00 0.00 69 1006.7
20260506025519 19 225 9.7 19.3 0.00 0.00 0.00 68 1006.7
20260506024519 19 225 11.3 24.1 0.00 0.00 0.00 68 1006.7
20260506023519 19 225 6.4 16.1 0.00 0.00 0.00 66 1006.7
20260506022620 20 225 9.7 20.9 0.00 0.00 0.00 65 1006.9
20260506021519 20 225 9.7 32.2 0.00 0.00 0.00 63 1006.8
20260506020519 20 225 9.7 22.5 0.00 0.00 0.00 62 1006.6
20260506015539 20 225 8.0 17.7 0.00 0.00 0.00 61 1006.7
20260506014519 20 225 6.4 17.7 0.00 0.00 0.00 61 1006.6
20260506013520 20 225 6.4 14.5 0.00 0.00 0.00 61 1006.6
20260506012519 20 225 8.0 19.3 0.00 0.00 0.00 60 1006.5
20260506011520 20 225 6.4 25.7 0.00 0.00 0.00 60 1006.4
20260506010540 21 225 9.7 25.7 0.00 0.00 0.00 59 1006.4
20260506005519 21 225 8.0 17.7 0.00 0.00 0.00 59 1006.2
20260506004519 21 225 9.7 20.9 0.00 0.00 0.00 58 1006.0
20260506003519 21 225 8.0 20.9 0.00 0.00 0.00 57 1005.9
20260506002519 21 203 8.0 22.5 0.00 0.00 0.00 56 1005.9
20260506001519 22 225 4.8 11.3 0.00 0.00 0.00 55 1005.9
20260506000519 22 225 4.8 16.1 0.00 0.00 0.00 52 1005.7
20260505235519 23 203 8.0 17.7 0.00 0.00 0.00 47 1005.6
20260505234519 24 225 11.3 19.3 0.00 0.00 0.00 44 1005.3
20260505233559 25 225 12.9 32.2 0.00 0.00 0.00 40 1005.2
20260505232519 25 225 11.3 32.2 0.00 0.00 0.00 39 1005.1
20260505231519 25 225 12.9 25.7 0.00 0.00 0.00 38 1005.0
20260505230519 26 225 11.3 29.0 0.00 0.00 0.00 37 1004.8
20260505225540 26 225 16.1 37.0 0.00 0.00 0.00 37 1004.8
20260505224559 26 225 14.5 33.8 0.00 0.00 0.00 36 1004.6
20260505223520 26 225 9.7 22.5 0.00 0.00 0.00 35 1004.5
20260505222519 27 225 16.1 41.8 0.00 0.00 0.00 34 1004.4